This demonstration page uses our WeatherBlox Daily Observations layout. Learn more.

Left ArrowRight Arrow

Hourly Observations for June 12, 2015

Temp ( °F °C ) Dew Point ( °F °C ) Humidity (%) Winds ( mph kmh ) Pressure ( in mb ) Visibility ( mi km ) Precip ( " mm )
12:59 am 00:59 Clear 84 28.9 74 23.3 72 72 SSW 8 13 30.01 1016 10 16 0.00 0.00
1:59 am 01:59 Clear 83 28.3 74 23.3 74 74 SSW 7 11 30.01 1016 10 16 0.00 0.00
2:59 am 02:59 Clear 82 27.8 74 23.3 77 77 SSW 10 17 30.01 1016 10 16 0.00 0.00
3:59 am 03:59 Clear 81 27.2 73 22.8 77 77 SSW 8 13 30.01 1016 10 16 0.00 0.00
4:59 am 04:59 Mostly Clear 80 26.7 73 22.8 79 79 SW 7 11 30.01 1016 10 16 0.00 0.00
5:59 am 05:59 Mostly Sunny 80 26.7 73 22.8 79 79 SSW 7 11 30.02 1017 10 16 0.00 0.00
6:59 am 06:59 Partly Cloudy 81 27.2 73 22.8 77 77 SSW 6 9 30.03 1017 10 16 0.00 0.00
7:59 am 07:59 Partly Cloudy 83 28.3 73 22.8 72 72 SSW 6 9 30.04 1017 10 16 0.00 0.00
8:59 am 08:59 Partly Cloudy 85 29.4 74 23.3 70 70 SSW 6 9 30.05 1018 10 16 0.00 0.00
9:59 am 09:59 Mostly Sunny 88 31.1 74 23.3 63 63 SSW 8 13 30.04 1017 10 16 0.00 0.00
10:59 am 10:59 Partly Cloudy 91 32.8 75 23.9 59 59 SW 7 11 30.04 1017 10 16 0.00 0.00
11:59 am 11:59 Partly Cloudy 93 33.9 74 23.3 54 54 SSW 9 15 30.02 1017 10 16 0.00 0.00
12:59 pm 12:59 Partly Cloudy 95 35 73 22.8 49 49 SW 12 19 30.01 1016 10 16 0.00 0.00
1:59 pm 13:59 Partly Cloudy 95 35 72 22.2 47 47 SW 15 24 29.99 1016 10 16 0.00 0.00
2:59 pm 14:59 Partly Cloudy 96 35.6 72 22.2 46 46 SSW 12 19 29.97 1015 10 16 0.00 0.00
3:59 pm 15:59 Partly Cloudy 96 35.6 72 22.2 46 46 SSW 9 15 29.95 1014 10 16 0.00 0.00
4:59 pm 16:59 Partly Cloudy 96 35.6 73 22.8 47 47 SSW 13 20 29.94 1014 10 16 0.00 0.00
5:59 pm 17:59 Partly Cloudy 95 35 73 22.8 49 49 SSW 9 15 29.93 1014 10 16 0.00 0.00
6:59 pm 18:59 Mostly Sunny 94 34.4 72 22.2 49 49 SSW 9 15 29.94 1014 10 16 0.00 0.00
7:59 pm 19:59 Partly Cloudy 92 33.3 73 22.8 54 54 SSW 12 19 29.95 1014 10 16 0.00 0.00
8:59 pm 20:59 Partly Cloudy 91 32.8 71 21.7 52 52 SW 9 15 29.96 1015 10 16 0.00 0.00
9:59 pm 21:59 Partly Cloudy 88 31.1 72 22.2 59 59 SSW 9 15 29.97 1015 10 16 0.00 0.00
10:59 pm 22:59 Partly Cloudy 87 30.6 73 22.8 63 63 SSW 8 13 29.98 1015 10 16 0.00 0.00
11:59 pm 23:59 Mostly Clear 85 29.4 73 22.8 68 68 WSW 6 9 29.98 1015 10 16 0.00 0.00

Powered by AerisWeather